Flag for Austria Weather past 2 weeks in Marchtrenk, Upper Austria, Austria

Now
66 °F

Partly sunny.


Feels Like: 66 °F
Forecast: 57 / 84 °F
Wind: 2 mph from Southeast

Location: Linz / Hoersching-Flughafen

Current Time: Aug 2, 2015 at 7:30:34 PM

Latest Report: Aug 2, 2015 at 6:50 PM


Visibility: N/A

Pressure: 30.12 "Hg

Humidity: 83%

Dew point: 61 °F

Location of MarchtrenkLocation

Historic Weather in Marchtrenk — Graph

°F

Marchtrenk temperature yesterday

Maximum temperature yesterday: 84 °F (at 3:20 PM)
Minimum temperature yesterday: 57 °F (at 5:20 AM)
Average temperature yesterday: 71 °F

Past Weeks' High & Low Weather Summary

 TemperatureHumidityPressure
High97 °F (Jul 22, 2:50 PM)100% (Jul 20, 4:50 AM)30.15 "Hg (Jul 20, 4:50 AM)
Low55 °F (Jul 26, 5:20 AM)22% (Jul 22, 2:50 PM)29.68 "Hg (Jul 25, 2:50 AM)
Average72 °F62%29.93 "Hg
* Reported Jul 18 6:20 PM — Aug 2 6:20 PM, Marchtrenk, Weather by CustomWeather, © 2015

Note: Actual official high and low records may vary slightly from our data, if they occured in-between our weather recording intervals... More about our weather records

Advertising

Marchtrenk weather history for previous 24 hours

 ConditionsComfort  
Time TempWeatherWind HumidityBarometerVisibility
6:20 PM
Sun, Aug 2
66 °FPartly sunny.2 mph83%30.12 "HgN/A
5:50 PM68 °FBroken clouds.2 mph73%30.15 "HgN/A
5:20 PM66 °FBroken clouds.2 mph83%30.15 "HgN/A
4:50 PM66 °FBroken clouds.5 mph78%30.15 "HgN/A
4:20 PM66 °FPartly sunny.6 mph83%30.15 "HgN/A
3:50 PM66 °FPartly sunny.6 mph83%30.15 "HgN/A
3:20 PM66 °FPartly sunny.7 mph83%30.15 "HgN/A
2:50 PM64 °FBroken clouds.7 mph88%30.15 "HgN/A
2:20 PM64 °FLight rain. Broken clouds.6 mph94%30.15 "HgN/A
1:50 PM64 °FLight rain. Broken clouds.6 mph88%30.15 "HgN/A
1:20 PM63 °FLight rain. Broken clouds.6 mph94%30.15 "HgN/A
12:50 PM63 °FRain. Broken clouds.7 mph94%30.15 "Hg6 mi
12:20 PM63 °FSprinkles. Broken clouds.6 mph94%30.15 "Hg6 mi
11:50 AM63 °FRain. Partly sunny.7 mph94%30.12 "Hg4 mi
11:20 AM63 °FPartly sunny.9 mph94%30.12 "HgN/A
10:50 AM63 °FLight rain. Broken clouds.8 mph94%30.12 "HgN/A
10:20 AM63 °FDrizzle. Partly sunny.9 mph94%30.12 "Hg6 mi
9:50 AM63 °FLight rain. Partly sunny.10 mph94%30.09 "HgN/A
9:20 AM63 °FLight rain. Partly sunny.8 mph88%30.09 "Hg5 mi
8:50 AM61 °FLight rain. Broken clouds.8 mph94%30.09 "Hg4 mi
8:20 AM61 °FLight rain. Broken clouds.7 mph94%30.09 "Hg4 mi
7:50 AM61 °FLight rain. Broken clouds.8 mph94%30.09 "Hg4 mi
7:20 AM61 °FRain. Broken clouds.7 mph94%30.07 "Hg4 mi
6:50 AM61 °FLight rain. Partly sunny.8 mph94%30.07 "Hg6 mi
6:20 AM61 °FLight rain. Partly cloudy.10 mph94%30.07 "Hg6 mi
5:50 AM61 °FLight rain. Mostly cloudy.9 mph94%30.07 "Hg6 mi
4:50 AM61 °FLight rain. Mostly cloudy.9 mph94%30.04 "HgN/A
4:20 AM61 °FLight rain. Passing clouds.8 mph94%30.04 "HgN/A
3:50 AM63 °FPassing clouds.9 mph88%30.04 "HgN/A
3:20 AM63 °FLight rain. Passing clouds.14 mph88%30.04 "HgN/A
2:50 AM63 °FSprinkles. Passing clouds.10 mph88%30.04 "HgN/A
2:20 AM64 °FClear.14 mph83%30.04 "Hg10 mi
1:50 AM66 °FSprinkles. Passing clouds.12 mph73%30.04 "HgN/A
1:20 AM66 °FLight rain. Passing clouds.10 mph68%30.01 "HgN/A
12:50 AM68 °FLight rain. Passing clouds.12 mph60%30.01 "HgN/A
11:50 PM
Sat, Aug 1
70 °FClear.10 mph57%30.01 "Hg10 mi
11:20 PM70 °FClear.12 mph57%29.98 "Hg10 mi
10:50 PM70 °FClear.13 mph57%29.98 "Hg10 mi
10:20 PM72 °FClear.12 mph53%29.98 "Hg10 mi
9:50 PM72 °FClear.10 mph53%29.95 "Hg10 mi
9:20 PM72 °FSunny.10 mph57%29.95 "Hg10 mi
8:50 PM73 °FSunny.12 mph53%29.95 "Hg10 mi
8:20 PM75 °FSunny.9 mph50%29.92 "Hg10 mi
7:50 PM75 °FSunny.9 mph50%29.92 "Hg10 mi
7:20 PM77 °FSunny.12 mph44%29.92 "Hg10 mi
Weather by CustomWeather, © 2015

See weather overviewHow to use our weather pages